Погода в Большом Карлыгане

Россия / Республика Марий Эл     56°33′53″N   50°03′36″E
темп.,
°C
ветер,
м/с
пор.,
м/с
влажн.,
%
обл.,
%
осадки,
мм/ч
давл.,
гПа
погр.,
м
8 мая, сб
сб800:00+10сз4694100 0.4 1015324
03:00+8ссз3790100 0.6 1017452
06:00+8с3690100 0.8 1017352
09:00+8св2386100 0.9 1018348
12:00+10всв3380100 0.1 1017401
15:00+11всв338218 0.1 1017246
18:00+13в227664 0.0 101578
21:00+10юв4786100 0.0 1015105
9 мая, вс
вс900:00+9юв4128712 0.0 1014202
03:00+10ююв5147971 0.0 1013286
06:00+12ююв6147584 0.0 1013385
09:00+16ююв71060100 0.0 1013690
12:00+19ю71051100 0.0 10131427
15:00+18ю5955100 0.0 1013572
18:00+17ююв4864100 0.0 1013200
21:00+15ю396997 0.1 1014173
10 мая, пн
пн1000:00+12юз3996100 0.4 1015294
03:00+12зсз3598100 1.1 1016148
06:00+10сз4490100 0.3 1019333
09:00+9сз4586100 0.4 1022424
12:00+8сз4684100 0.8 1024449
15:00+9сз4889100 1.3 1025562
18:00+9ссз6986100 0.0 1027674
21:00+8с5981100 0.0 1028603
11 мая, вт
вт1100:00+5с310930 0.0 1029243
03:00+4ссв410940 0.0 1030213
06:00+7ссв510810 0.0 1031370
09:00+12св57575 0.0 1031805
12:00+15ссв454311 0.0 10311187
15:00+16ссв45395 0.0 10301295
18:00+14ссв35565 0.0 1030143
21:00+10св33655 0.0 103130
12 мая, ср
ср1200:00+9всв33675 0.0 103223
03:00+8всв33715 0.0 103233
06:00+10всв246629 0.0 1032136
09:00+15в234857 0.0 1032585
12:00+18в234412 0.0 1031979
15:00+20всв22445 0.0 10301134
18:00+19ссв22565 0.0 103017
21:00+14ссв226543 0.0 102912